Location: Red Deer
(52.2681°N, 113.8112°W)
Time: 23:56:26
(UTC-06:00)

QB50P2 - Pass Details

Date: 27 May 2022
Orbit: 589 x 607 km, 97.9° (Epoch: 27 June)

Event Time Altitude Azimuth Distance (km) Brightness Sun altitude
Rises 02:21:40 0° 22° (NNE) 2,837 ? -15.6°
Reaches altitude 10° 02:24:04 10° 33° (NNE) 1,929 ? -15.6°
Maximum altitude 02:27:47 31° 96° (E) 1,057 ? -15.4°
Enters shadow 02:30:19 17° 148° (SSE) 1,521 ? -15.3°
